User: anonymous   Login
Location: Axtheid
(49.6213°N, 11.8205°E)
Time: 02:44:36
(UTC+00:00)
Language:

YAOGAN 1 - Orbit

View from above orbital plane
View from above orbital plane
View from above satellite
View from above satellite

Ground track
Ground track

The orbit data is extracted from the following two-line orbital elements,

1 29092U 06015A   21102.53440374  .00000081  00000-0  16455-4 0  9994
2 29092  97.9148 130.5516 0001431  90.9337 269.2041 14.83146043809064
Epoch (UTC): 12 April 2021 12:49:32
Eccentricity: 0.0001431
inclination: 97.9148°
perigee height: 618 km
apogee height: 620 km
right ascension of ascending node: 130.5516°
argument of perigee: 90.9337°
revolutions per day: 14.83146043
mean anomaly at epoch: 269.2041°
orbit number at epoch: 80906

The dashed part of the orbit path shows where the satellite is in the earth's shadow,  

DLR